This demonstration page uses our WeatherBlox Daily Observations layout. Learn more.

Left ArrowRight Arrow

53.62937, 11.41316

Hourly Observations for November 4, 2019

Temp ( °F °C ) Dew Point ( °F °C ) Humidity (%) Winds ( mph kmh ) Pressure ( in mb ) Visibility ( mi km ) Precip ( " mm )
6:20 am 06:20 Mostly Cloudy with Light Rain 50 10 50 10 100 100 ESE 3 6 29.15 987 2 4 N/A
6:50 am 06:50 Cloudy with Light Rain 50 10 50 10 100 100 SE 5 7 29.15 987 2 4 N/A
7:20 am 07:20 Cloudy with Light Rain 50 10 50 10 100 100 SE 5 7 29.15 987 2 4 N/A
7:50 am 07:50 Cloudy with Light Rain 50 10 50 10 100 100 SE 5 7 29.15 987 2 4 N/A
8:20 am 08:20 Cloudy with Light Rain 50 10 50 10 100 100 SE 5 7 29.15 987 2 4 N/A
8:50 am 08:50 Cloudy with Light Rain 50 10 50 10 100 100 SE 3 6 29.15 987 3 5 N/A
9:20 am 09:20 Cloudy with Light Rain 50 10 50 10 100 100 SE 3 6 29.15 987 3 5 N/A
9:50 am 09:50 Cloudy with Light Rain 50 10 50 10 100 100 SE 3 6 29.15 987 3 5 N/A
10:20 am 10:20 Cloudy with Light Rain 52 11 50 10 94 94 SE 3 6 29.15 987 3 5 N/A
10:50 am 10:50 Mostly Cloudy with Light Rain 52 11 50 10 94 94 S 3 6 29.18 988 4 6 N/A
11:20 am 11:20 Mostly Cloudy with Light Rain 52 11 46 8 82 82 VRB 2 4 29.18 988 4 6 N/A
11:50 am 11:50 Mostly Cloudy with Light Rain 50 10 32 0 50 50 W 9 15 29.18 988 4 7 N/A
12:20 pm 12:20 Mostly Cloudy with Light Rain 50 10 48 9 94 94 WSW 8 13 29.18 988 6 9 N/A
12:50 pm 12:50 Mostly Cloudy with Light Rain 50 10 48 9 94 94 W 7 11 29.18 988 30 48 N/A
1:20 pm 13:20 Mostly Cloudy with Light Rain 50 10 48 9 94 94 WSW 6 9 29.18 988 4 7 N/A
1:50 pm 13:50 Mostly Cloudy with Light Rain 52 11 50 10 94 94 W 5 7 29.18 988 30 48 N/A
2:20 pm 14:20 Partly Cloudy 52 11 50 10 94 94 W 6 9 29.18 988 30 48 N/A
2:50 pm 14:50 Mostly Cloudy 52 11 50 10 94 94 W 3 6 29.21 989 30 48 N/A
3:20 pm 15:20 Partly Cloudy 52 11 50 10 94 94 SW 2 4 29.21 989 30 48 N/A
3:50 pm 15:50 Mostly Cloudy 54 12 48 9 82 82 W 5 7 29.21 989 30 48 N/A
4:20 pm 16:20 Mostly Cloudy 52 11 48 9 88 88 W 3 6 29.21 989 30 48 N/A
4:50 pm 16:50 Mostly Cloudy 52 11 50 10 94 94 VRB 1 2 29.21 989 30 48 N/A
5:20 pm 17:20 Mostly Cloudy 50 10 48 9 94 94 VRB 1 2 29.21 989 6 9 N/A
5:50 pm 17:50 Partly Cloudy with Patchy Fog 48 9 46 8 94 94 VRB 1 2 29.24 990 30 48 N/A
6:20 pm 18:20 Mostly Clear with Patchy Fog 48 9 46 8 94 94 WSW 2 4 29.24 990 30 48 N/A
6:50 pm 18:50 Mostly Clear with Patchy Fog 46 8 45 7 93 93 Calm 29.24 990 30 48 N/A
7:20 pm 19:20 Mostly Clear with Patchy Fog 46 8 45 7 93 93 VRB 1 2 29.24 990 30 48 N/A
7:50 pm 19:50 Mostly Clear with Patchy Fog 45 7 45 7 100 100 VRB 1 2 29.24 990 30 48 N/A

Powered by AerisWeather